Location: Mount Kobau Star Party
(49.1167°N, 119.7333°W)
Time: 12:34:15
(UTC-07:00)

ARIANE 6 FM1 Upper Stage - Pass Details

Date: 17 April 2026
Orbit: 526 x 601 km, 62.0° (Epoch: 18 May)

Event Time Altitude Azimuth Distance (km) Brightness Sun altitude
Rises 01:52:48 0° 316° (NW) 2,672 6.5 -29.2°
Reaches altitude 10° 01:55:01 10° 319° (NW) 1,775 5.6 -29.1°
Enters shadow 01:56:03 17° 322° (NW) 1,371 5.0 -29.0°
